Change the Weather History Date:

Sunday, January 20, 2013

  Actual Average Record
Temperature  
Mean Temperature 16 °F -  
Max Temperature 19 °F 31 °F 53 °F (1997)
Min Temperature 12 °F 15 °F 0 °F (2001)
Degree Days  
Heating Degree Days 50    
Moisture  
Dew Point 6 °F    
Average Humidity 67    
Maximum Humidity 85    
Minimum Humidity 49    
Precipitation  
Precipitation 0.00 in - - ()
Sea Level Pressure  
Sea Level Pressure 30.35 in    
Wind  
Wind Speed 10 mph (NNW)    
Max Wind Speed 16 mph    
Max Gust Speed 23 mph    
Visibility 10 miles    
Events Snow    
Averages and records for this station are not official NWS values.
T = Trace of Precipitation, MM = Missing Value Source: NWS Daily Summary

Daily Weather History Graph

Daily Weather History Graph

Search for Another Location

Airport or City:

Trip Planner

Search our weather history database for the weather conditions in past years. The results will help you decide how hot, cold, wet, or windy it might be!

Date:

Astronomy

Jan. 20, 2013 Rise Set
Actual Time 7:43 AM CST 5:25 PM CST
Civil Twilight 7:13 AM CST 5:55 PM CST
Nautical Twilight 6:39 AM CST 6:28 PM CST
Astronomical Twilight 6:07 AM CST 7:01 PM CST
Moon 12:27 PM CST (1/20) 2:16 AM CST (1/20)
Length of Visible Light 10h 41m
Length of Day
9h 41m
Waxing Gibbous, 66% of the Moon is Illuminated
Jan 20
Waxing Gibbous
Jan 26
Full
Feb 3
Last Quarter
Feb 10
New
Feb 17
First Quarter

Hourly Weather History & Observations

Time (CST) Temp. Windchill Dew Point Humidity Pressure Visibility Wind Dir Wind Speed Gust Speed Precip Events Conditions
12:15 AM 19.4 °F 5.5 °F 8.6 °F 63% 30.33 in 10.0 mi NNW 15.0 mph - N/A   Clear
12:35 AM 19.4 °F 5.0 °F 6.8 °F 58% 30.33 in 10.0 mi NNW 16.1 mph - N/A   Clear
12:55 AM 19.4 °F 5.0 °F 6.8 °F 58% 30.32 in 10.0 mi NNW 16.1 mph 23.0 mph N/A   Clear
1:15 AM 17.6 °F 3.7 °F 6.8 °F 63% 30.33 in 10.0 mi North 13.8 mph 20.7 mph N/A   Clear
1:35 AM 17.6 °F 4.3 °F 6.8 °F 63% 30.31 in 10.0 mi North 12.7 mph 18.4 mph N/A   Clear
1:55 AM 17.6 °F 3.2 °F 8.6 °F 68% 30.31 in 10.0 mi North 15.0 mph - N/A   Clear
2:15 AM 17.6 °F 6.4 °F 6.8 °F 63% 30.32 in 10.0 mi North 9.2 mph 17.3 mph N/A   Clear
2:35 AM 15.8 °F 6.1 °F 5.0 °F 62% 30.34 in 10.0 mi North 6.9 mph - N/A   Clear
2:55 AM 15.8 °F 2.7 °F 5.0 °F 62% 30.32 in 10.0 mi North 11.5 mph - N/A   Clear
3:15 AM 15.8 °F 4.2 °F 5.0 °F 62% 30.32 in 10.0 mi North 9.2 mph - N/A   Clear
3:35 AM 15.8 °F 5.1 °F 5.0 °F 62% 30.32 in 10.0 mi NNW 8.1 mph - N/A   Clear
3:55 AM 15.8 °F 6.1 °F 6.8 °F 68% 30.31 in 10.0 mi North 6.9 mph - N/A   Clear
4:15 AM 15.8 °F 7.2 °F 6.8 °F 68% 30.31 in 10.0 mi North 5.8 mph - N/A   Clear
4:35 AM 15.8 °F 4.2 °F 5.0 °F 62% 30.31 in 10.0 mi North 9.2 mph - N/A   Clear
4:55 AM 14.0 °F - 5.0 °F 67% 30.32 in 10.0 mi North - - N/A   Clear
5:15 AM 14.0 °F 3.9 °F 5.0 °F 67% 30.32 in 10.0 mi North 6.9 mph - N/A   Clear
5:35 AM 14.0 °F 3.9 °F 5.0 °F 67% 30.31 in 10.0 mi NNE 6.9 mph - N/A   Clear
5:55 AM 14.0 °F 3.9 °F 6.8 °F 73% 30.31 in 10.0 mi North 6.9 mph - N/A   Clear
6:15 AM 14.0 °F 6.5 °F 5.0 °F 67% 30.32 in 10.0 mi North 4.6 mph - N/A   Mostly Cloudy
6:35 AM 14.0 °F 8.2 °F 6.8 °F 73% 30.33 in 10.0 mi North 3.5 mph - N/A   Partly Cloudy
6:55 AM 14.0 °F 5.1 °F 5.0 °F 67% 30.32 in 10.0 mi North 5.8 mph - N/A   Partly Cloudy
7:15 AM 14.0 °F 5.1 °F 6.8 °F 73% 30.33 in 10.0 mi North 5.8 mph - N/A   Partly Cloudy
7:35 AM 14.0 °F 5.1 °F 6.8 °F 73% 30.33 in 10.0 mi North 5.8 mph - N/A   Clear
7:55 AM 14.0 °F 5.1 °F 6.8 °F 73% 30.33 in 10.0 mi NNE 5.8 mph - N/A   Clear
8:15 AM 14.0 °F 6.5 °F 5.0 °F 67% 30.33 in 10.0 mi NNE 4.6 mph - N/A   Clear
8:35 AM 14.0 °F 5.1 °F 5.0 °F 67% 30.34 in 10.0 mi North 5.8 mph - N/A   Clear
8:55 AM 15.8 °F 6.1 °F 6.8 °F 68% 30.35 in 10.0 mi NNE 6.9 mph - N/A   Clear
9:15 AM 15.8 °F 3.4 °F 6.8 °F 68% 30.35 in 10.0 mi North 10.4 mph - N/A   Clear
9:35 AM 15.8 °F 3.4 °F 5.0 °F 62% 30.35 in 10.0 mi North 10.4 mph - N/A   Clear
9:55 AM 15.8 °F 2.7 °F 5.0 °F 62% 30.35 in 10.0 mi North 11.5 mph - N/A   Clear
10:15 AM 17.6 °F 4.3 °F 5.0 °F 58% 30.36 in 10.0 mi NNE 12.7 mph - N/A   Mostly Cloudy
10:35 AM 15.8 °F 3.4 °F 3.2 °F 58% 30.37 in 10.0 mi North 10.4 mph - N/A   Overcast
10:55 AM 17.6 °F 8.2 °F 5.0 °F 58% 30.38 in 10.0 mi NNE 6.9 mph - N/A   Overcast
11:15 AM 17.6 °F 7.3 °F 5.0 °F 58% 30.39 in 10.0 mi NNW 8.1 mph - N/A   Overcast
11:35 AM 17.6 °F 6.4 °F 3.2 °F 53% 30.40 in 10.0 mi North 9.2 mph - N/A   Overcast
11:55 AM 17.6 °F 7.3 °F 5.0 °F 58% 30.40 in 10.0 mi North 8.1 mph - N/A   Overcast
12:15 PM 19.4 °F 8.6 °F 3.2 °F 49% 30.39 in 10.0 mi NW 9.2 mph - N/A   Overcast
12:35 PM 17.6 °F 6.4 °F 3.2 °F 53% 30.38 in 10.0 mi North 9.2 mph - N/A   Overcast
12:55 PM 17.6 °F 8.2 °F 3.2 °F 53% 30.37 in 10.0 mi NNW 6.9 mph - N/A   Overcast
1:15 PM 17.6 °F 7.3 °F 5.0 °F 58% 30.36 in 10.0 mi NNW 8.1 mph - N/A   Overcast
1:35 PM 17.6 °F 6.4 °F 5.0 °F 58% 30.36 in 10.0 mi North 9.2 mph - N/A   Overcast
1:55 PM 19.4 °F 9.5 °F 5.0 °F 54% 30.36 in 10.0 mi NNW 8.1 mph - N/A   Overcast
2:15 PM 19.4 °F 8.6 °F 6.8 °F 58% 30.36 in 10.0 mi NNW 9.2 mph - N/A   Overcast
2:35 PM 19.4 °F 7.2 °F 6.8 °F 58% 30.36 in 10.0 mi NNW 11.5 mph - N/A   Overcast
2:55 PM 17.6 °F 5.7 °F 8.6 °F 68% 30.36 in 10.0 mi NNW 10.4 mph - N/A   Overcast
3:15 PM 17.6 °F 5.0 °F 8.6 °F 68% 30.36 in 10.0 mi NW 11.5 mph - N/A   Overcast
3:35 PM 17.6 °F 5.7 °F 8.6 °F 68% 30.36 in 10.0 mi NNW 10.4 mph - N/A   Overcast
3:55 PM 17.6 °F 4.3 °F 8.6 °F 68% 30.36 in 10.0 mi NNW 12.7 mph - N/A   Overcast
4:15 PM 17.6 °F 4.3 °F 8.6 °F 68% 30.36 in 10.0 mi NNW 12.7 mph - N/A   Overcast
4:35 PM 17.6 °F 6.4 °F 8.6 °F 68% 30.37 in 10.0 mi NNW 9.2 mph - N/A Snow Light Snow
4:55 PM 17.6 °F 5.0 °F 8.6 °F 68% 30.37 in 10.0 mi NNW 11.5 mph - N/A   Overcast
5:15 PM 15.8 °F 4.2 °F 8.6 °F 73% 30.37 in 10.0 mi NNW 9.2 mph - N/A   Overcast
5:35 PM 15.8 °F 5.1 °F 8.6 °F 73% 30.37 in 10.0 mi NW 8.1 mph - N/A   Scattered Clouds
5:55 PM 14.0 °F 2.9 °F 8.6 °F 79% 30.38 in 10.0 mi NW 8.1 mph - N/A   Partly Cloudy
6:15 PM 14.0 °F 2.9 °F 8.6 °F 79% 30.38 in 10.0 mi NNW 8.1 mph - N/A   Clear
6:55 PM 14.0 °F 5.1 °F 8.6 °F 79% 30.39 in 10.0 mi NW 5.8 mph - N/A   Clear
7:15 PM 12.2 °F 4.3 °F 8.6 °F 85% 30.38 in 10.0 mi NW 4.6 mph - N/A   Clear
7:35 PM 14.0 °F 8.2 °F 8.6 °F 79% 30.38 in 10.0 mi WNW 3.5 mph - N/A   Clear
7:55 PM 12.2 °F 0.7 °F 8.6 °F 85% 30.38 in 10.0 mi NNW 8.1 mph - N/A   Clear
8:15 PM 12.2 °F -0.2 °F 8.6 °F 85% 30.39 in 10.0 mi NNW 9.2 mph - N/A   Clear
8:35 PM 12.2 °F 0.7 °F 6.8 °F 79% 30.38 in 10.0 mi NNW 8.1 mph - N/A   Clear
8:55 PM 12.2 °F 0.7 °F 6.8 °F 79% 30.38 in 10.0 mi NNW 8.1 mph - N/A   Clear
9:15 PM 12.2 °F -1.0 °F 6.8 °F 79% 30.39 in 10.0 mi NNW 10.4 mph - N/A   Mostly Cloudy
9:35 PM 14.0 °F 2.0 °F 6.8 °F 73% 30.38 in 10.0 mi NNW 9.2 mph - N/A   Overcast
9:55 PM 14.0 °F 5.1 °F 6.8 °F 73% 30.38 in 10.0 mi WNW 5.8 mph - N/A   Overcast
10:15 PM 14.0 °F 5.1 °F 6.8 °F 73% 30.38 in 10.0 mi WNW 5.8 mph - N/A   Overcast
10:35 PM 14.0 °F 2.0 °F 6.8 °F 73% 30.38 in 10.0 mi NW 9.2 mph - N/A   Overcast
10:55 PM 14.0 °F 2.9 °F 6.8 °F 73% 30.38 in 10.0 mi NW 8.1 mph - N/A   Overcast
11:15 PM 12.2 °F 1.7 °F 6.8 °F 79% 30.38 in 10.0 mi NW 6.9 mph - N/A   Overcast
11:35 PM 12.2 °F 1.7 °F 5.0 °F 73% 30.38 in 10.0 mi NW 6.9 mph - N/A   Overcast
11:55 PM 14.0 °F 6.5 °F 6.8 °F 73% 30.38 in 10.0 mi NW 4.6 mph - N/A   Overcast